| time (UTC) | temp F | wind direction | speed MPH | gust MPH | rain 1hr in | rain 24hr in | rain mn in | humidity % | barometer mb |
| 20260901234556 | 80 | 115 | 0.0 | 6.0 | 0.00 | 0.00 | 0.00 | 37 | 1011.0 |
| 20260901233050 | 80 | 123 | 4.0 | 7.0 | 0.00 | 0.00 | 0.00 | 36 | 1011.1 |
| 20260901231546 | 80 | 138 | 0.0 | 14.0 | 0.00 | 0.00 | 0.00 | 37 | 1011.2 |
| 20260901230055 | 79 | 0 | 0.0 | 4.0 | 0.00 | 0.00 | 0.00 | 39 | 1011.4 |
| 20260901224554 | 78 | 314 | 2.0 | 3.0 | 0.00 | 0.00 | 0.00 | 42 | 1011.4 |
| 20260901223048 | 77 | 281 | 2.0 | 9.0 | 0.00 | 0.00 | 0.00 | 42 | 1011.7 |
| 20260901221546 | 77 | 308 | 3.0 | 7.0 | 0.00 | 0.00 | 0.00 | 43 | 1011.8 |
| 20260901220058 | 77 | 288 | 3.0 | 11.0 | 0.00 | 0.00 | 0.00 | 43 | 1012.0 |
| 20260901214552 | 78 | 255 | 8.0 | 14.0 | 0.00 | 0.00 | 0.00 | 40 | 1012.1 |
| 20260901213057 | 78 | 259 | 7.0 | 13.0 | 0.00 | 0.00 | 0.00 | 40 | 1012.3 |
| 20260901211554 | 79 | 255 | 7.0 | 17.0 | 0.00 | 0.00 | 0.00 | 37 | 1012.3 |
| 20260901210052 | 78 | 335 | 4.0 | 12.0 | 0.00 | 0.00 | 0.00 | 40 | 1012.5 |
| 20260901204547 | 77 | 335 | 7.0 | 10.0 | 0.00 | 0.00 | 0.00 | 39 | 1012.5 |
| 20260901203048 | 76 | 328 | 3.0 | 10.0 | 0.00 | 0.00 | 0.00 | 41 | 1012.8 |
| 20260901201552 | 75 | 335 | 9.0 | 15.0 | 0.00 | 0.00 | 0.00 | 41 | 1013.1 |
| 20260901194557 | 72 | 321 | 5.0 | 13.0 | 0.00 | 0.00 | 0.00 | 47 | 1013.5 |
| 20260901193108 | 71 | 345 | 11.0 | 20.0 | 0.00 | 0.00 | 0.00 | 49 | 1013.8 |
| 20260901191547 | 71 | 295 | 2.0 | 10.0 | 0.00 | 0.00 | 0.00 | 53 | 1014.1 |
| 20260901190053 | 71 | 288 | 9.0 | 16.0 | 0.00 | 0.00 | 0.00 | 49 | 1014.3 |
| 20260901184554 | 71 | 304 | 10.0 | 17.0 | 0.00 | 0.00 | 0.00 | 47 | 1014.4 |
| 20260901183051 | 71 | 309 | 8.0 | 20.0 | 0.00 | 0.00 | 0.00 | 49 | 1014.5 |
| 20260901181550 | 71 | 249 | 10.0 | 22.0 | 0.00 | 0.00 | 0.00 | 49 | 1014.4 |
| 20260901180055 | 71 | 274 | 9.0 | 20.0 | 0.00 | 0.00 | 0.00 | 49 | 1014.5 |
| 20260901174551 | 72 | 231 | 9.0 | 23.0 | 0.00 | 0.00 | 0.00 | 50 | 1014.5 |
| 20260901173055 | 67 | 258 | 5.0 | 13.0 | 0.00 | 0.00 | 0.00 | 60 | 1014.7 |
| 20260901171557 | 64 | 82 | 2.0 | 4.0 | 0.00 | 0.00 | 0.00 | 59 | 1014.9 |
| 20260901170057 | 62 | 95 | 5.0 | 8.0 | 0.00 | 0.00 | 0.00 | 57 | 1015.0 |
| 20260901164557 | 62 | 203 | 8.0 | 14.0 | 0.00 | 0.00 | 0.00 | 55 | 1015.0 |
| 20260901163049 | 58 | 96 | 4.0 | 6.0 | 0.00 | 0.00 | 0.00 | 68 | 1015.2 |
| 20260901161546 | 55 | 0 | 0.0 | 4.0 | 0.00 | 0.00 | 0.00 | 73 | 1014.9 |
| 20260901160043 | 54 | 306 | 1.0 | 5.0 | 0.00 | 0.00 | 0.00 | 75 | 1014.7 |
| 20260901154553 | 54 | 294 | 1.0 | 9.0 | 0.00 | 0.00 | 0.00 | 72 | 1015.3 |
| 20260901153043 | 52 | 0 | 0.0 | 3.0 | 0.00 | 0.00 | 0.00 | 77 | 1015.1 |
| 20260901151550 | 51 | 287 | 2.0 | 5.0 | 0.00 | 0.00 | 0.00 | 81 | 1015.3 |
| 20260901150049 | 50 | 293 | 5.0 | 7.0 | 0.00 | 0.00 | 0.00 | 81 | 1015.8 |
| 20260901144545 | 50 | 292 | 1.0 | 2.0 | 0.00 | 0.00 | 0.00 | 80 | 1015.9 |
| 20260901143052 | 49 | 309 | 2.0 | 4.0 | 0.00 | 0.00 | 0.00 | 80 | 1015.9 |
| 20260901141543 | 49 | 331 | 0.0 | 1.0 | 0.00 | 0.00 | 0.00 | 78 | 1016.1 |
| 20260901140050 | 49 | 0 | 1.0 | 2.0 | 0.00 | 0.00 | 0.00 | 82 | 1015.9 |
| 20260901134545 | 49 | 0 | 0.0 | 4.0 | 0.00 | 0.00 | 0.00 | 77 | 1016.0 |
| 20260901133053 | 46 | 264 | 0.0 | 1.0 | 0.00 | 0.00 | 0.00 | 84 | 1015.7 |
| 20260901131545 | 46 | 0 | 0.0 | 2.0 | 0.00 | 0.00 | 0.00 | 81 | 1015.5 |
| 20260901130047 | 45 | 0 | 1.0 | 4.0 | 0.00 | 0.00 | 0.00 | 89 | 1015.5 |
| 20260901124545 | 45 | 0 | 0.0 | 1.0 | 0.00 | 0.00 | 0.00 | 85 | 1015.5 |
| 20260901123117 | 46 | 0 | 0.0 | 2.0 | 0.00 | 0.00 | 0.00 | 81 | 1015.5 |
| 20260901121603 | 45 | 210 | 3.0 | 4.0 | 0.00 | 0.00 | 0.00 | 82 | 1015.5 |
| 20260901120052 | 45 | 0 | 0.0 | 2.0 | 0.00 | 0.00 | 0.00 | 84 | 1015.3 |
| 20260901114545 | 45 | 0 | 0.0 | 1.0 | 0.00 | 0.00 | 0.00 | 85 | 1015.2 |
| 20260901113101 | 46 | 0 | 0.0 | 3.0 | 0.00 | 0.00 | 0.00 | 83 | 1015.5 |
| 20260901111552 | 46 | 270 | 0.0 | 3.0 | 0.00 | 0.00 | 0.00 | 79 | 1015.6 |
| 20260901110049 | 46 | 263 | 1.0 | 2.0 | 0.00 | 0.00 | 0.00 | 80 | 1015.6 |
| 20260901104555 | 46 | 0 | 0.0 | 1.0 | 0.00 | 0.00 | 0.00 | 81 | 1015.5 |
| 20260901103050 | 47 | 265 | 0.0 | 2.0 | 0.00 | 0.00 | 0.00 | 79 | 1015.6 |
| 20260901101549 | 48 | 257 | 2.0 | 4.0 | 0.00 | 0.00 | 0.00 | 78 | 1015.9 |
| 20260901100059 | 47 | 229 | 1.0 | 3.0 | 0.00 | 0.00 | 0.00 | 80 | 1015.8 |
| 20260901094551 | 49 | 250 | 1.0 | 3.0 | 0.00 | 0.00 | 0.00 | 74 | 1015.9 |
| 20260901093057 | 50 | 0 | 0.0 | 2.0 | 0.00 | 0.00 | 0.00 | 71 | 1015.9 |
| 20260901091548 | 50 | 210 | 1.0 | 3.0 | 0.00 | 0.00 | 0.00 | 72 | 1015.8 |
| 20260901090053 | 50 | 0 | 1.0 | 1.0 | 0.00 | 0.00 | 0.00 | 73 | 1015.8 |
| 20260901084549 | 52 | 155 | 0.0 | 4.0 | 0.00 | 0.00 | 0.00 | 67 | 1015.8 |
| 20260901083046 | 52 | 152 | 2.0 | 4.0 | 0.00 | 0.00 | 0.00 | 66 | 1015.6 |
| 20260901081545 | 53 | 75 | 1.0 | 4.0 | 0.00 | 0.00 | 0.00 | 65 | 1015.3 |
| 20260901080046 | 54 | 87 | 2.0 | 6.0 | 0.00 | 0.00 | 0.00 | 62 | 1015.5 |
| 20260901074544 | 54 | 79 | 4.0 | 9.0 | 0.00 | 0.00 | 0.00 | 60 | 1015.5 |
| 20260901073053 | 55 | 62 | 7.0 | 10.0 | 0.00 | 0.00 | 0.00 | 59 | 1015.6 |
| 20260901071550 | 55 | 70 | 5.0 | 9.0 | 0.00 | 0.00 | 0.00 | 58 | 1015.7 |
| 20260901070132 | 54 | 74 | 3.0 | 10.0 | 0.00 | 0.00 | 0.00 | 61 | 1015.7 |
| 20260901064554 | 55 | 51 | 3.0 | 12.0 | 0.00 | 0.00 | 0.00 | 58 | 1015.7 |
| 20260901063046 | 55 | 86 | 3.0 | 6.0 | 0.00 | 0.00 | 0.00 | 60 | 1015.8 |
| 20260901061548 | 56 | 84 | 2.0 | 8.0 | 0.00 | 0.00 | 0.00 | 59 | 1015.7 |
| 20260901060054 | 57 | 76 | 4.0 | 7.0 | 0.00 | 0.00 | 0.00 | 55 | 1015.5 |
| 20260901054549 | 57 | 81 | 2.0 | 3.0 | 0.00 | 0.00 | 0.00 | 55 | 1015.5 |
| 20260901053048 | 58 | 94 | 1.0 | 5.0 | 0.00 | 0.00 | 0.00 | 53 | 1015.6 |
| 20260901051552 | 59 | 70 | 3.0 | 5.0 | 0.00 | 0.00 | 0.00 | 51 | 1015.8 |
| 20260901050047 | 60 | 63 | 4.0 | 8.0 | 0.00 | 0.00 | 0.00 | 49 | 1016.0 |
| 20260901044617 | 60 | 38 | 4.0 | 6.0 | 0.00 | 0.00 | 0.00 | 49 | 1016.0 |
| 20260901043056 | 61 | 79 | 1.0 | 2.0 | 0.00 | 0.00 | 0.00 | 47 | 1016.1 |
| 20260901041551 | 62 | 100 | 0.0 | 1.0 | 0.00 | 0.00 | 0.00 | 47 | 1016.1 |
| 20260901040051 | 63 | 0 | 0.0 | 2.0 | 0.00 | 0.00 | 0.00 | 46 | 1016.0 |
| 20260901034546 | 64 | 60 | 2.0 | 4.0 | 0.00 | 0.00 | 0.00 | 46 | 1015.8 |
| 20260901033055 | 64 | 32 | 2.0 | 4.0 | 0.00 | 0.00 | 0.00 | 45 | 1015.6 |
| 20260901031554 | 64 | 70 | 2.0 | 4.0 | 0.00 | 0.00 | 0.00 | 46 | 1015.5 |
| 20260901030053 | 66 | 55 | 2.0 | 4.0 | 0.00 | 0.00 | 0.00 | 44 | 1015.3 |
| 20260901024547 | 67 | 82 | 2.0 | 5.0 | 0.00 | 0.00 | 0.00 | 45 | 1015.0 |
| 20260901023055 | 70 | 0 | 0.0 | 3.0 | 0.00 | 0.00 | 0.00 | 35 | 1014.8 |
| 20260901021554 | 72 | 133 | 3.0 | 6.0 | 0.00 | 0.00 | 0.00 | 31 | 1014.6 |
| 20260901020043 | 74 | 139 | 4.0 | 7.0 | 0.00 | 0.00 | 0.00 | 30 | 1014.4 |
| 20260901014554 | 75 | 115 | 4.0 | 9.0 | 0.00 | 0.00 | 0.00 | 29 | 1014.6 |
| 20260901013045 | 76 | 109 | 6.0 | 9.0 | 0.00 | 0.00 | 0.00 | 28 | 1014.5 |
| 20260901011604 | 77 | 119 | 4.0 | 8.0 | 0.00 | 0.00 | 0.00 | 27 | 1014.4 |
| 20260901010050 | 78 | 110 | 5.0 | 8.0 | 0.00 | 0.00 | 0.00 | 26 | 1014.4 |
| 20260901004602 | 79 | 103 | 5.0 | 8.0 | 0.00 | 0.00 | 0.00 | 25 | 1014.2 |
| 20260901003048 | 80 | 129 | 4.0 | 8.0 | 0.00 | 0.00 | 0.00 | 23 | 1014.3 |
| 20260901001547 | 80 | 107 | 4.0 | 7.0 | 0.00 | 0.00 | 0.00 | 23 | 1014.3 |
| 20260901000053 | 80 | 115 | 6.0 | 9.0 | 0.00 | 0.00 | 0.00 | 21 | 1014.6 |